Regional Weather Roundup
Issued by NWS

Home | Current Version | Previous Version | Text Only | Print | Product List | Glossary Off
Versions: 1 2 3 4 5 6 7 8 9 10 11 12 13 14 15 16 17 18 19 20 21 22 23 24 25 26 27 28 29 30 31 32 33 34 35 36 37 38 39 40 41 42 43 44 45 46 47 48 49 50

000
ASUS43 KBIS 230810
RWRND

NORTH DAKOTA REGIONAL WEATHER ROUNDUP
NATIONAL WEATHER SERVICE BISMARCK ND
300 AM CDT TUE SEP 23 2014

NOTE: "FAIR" INDICATES FEW OR NO CLOUDS BELOW 12,000 FEET WITH NO
SIGNIFICANT WEATHER AND/OR OBSTRUCTIONS TO VISIBILITY.


NDZ001>003-009>011-017-230900-
NORTHWEST NORTH DAKOTA

CITY           SKY/WX    TMP DP  RH WIND       PRES   REMARKS
WILLISTON      CLEAR     52  47  83 N5        29.85F
MINOT          CLEAR     53  48  83 E3        29.89F
MINOT AFB      CLEAR     51  50  95 SE6       29.89F
$$

NDZ018>021-031>035-040>046-230900-
SOUTHWEST NORTH DAKOTA

CITY           SKY/WX    TMP DP  RH WIND       PRES   REMARKS
BISMARCK       CLEAR     56  51  84 SE8       29.92F
DICKINSON      CLEAR     53  48  83 SE9       29.87F
GARRISON         N/A     56  51  84 SE5       29.90F
HETTINGER ARPT PTCLDY    49  47  93 CALM      29.89F
$$

NDZ004>008-012>016-024-026-027-054-230900-
NORTHEAST NORTH DAKOTA

CITY           SKY/WX    TMP DP  RH WIND       PRES   REMARKS
GRAND FORKS    CLEAR     53  48  83 S7        30.01F
GRND FRKS AFB  CLEAR     50  49  98 SE6       30.01F
DEVILS LAKE    CLEAR     57  46  67 SE5       29.96F
$$

NDZ022-023-025-028>030-036>039-047>053-230900-
SOUTHEAST NORTH DAKOTA

CITY           SKY/WX    TMP DP  RH WIND       PRES   REMARKS
FARGO          CLEAR     59  48  67 SE9       30.04F
JAMESTOWN      CLEAR     57  50  77 S10       29.98F
$$



USA.gov is the U.S. government's official web portal to all federal, state and local government web resources and services.